Location: Newark
(43.6583°N, 1.6617°E)
Time: 05:48:33
(UTC+00:00)

Transit 4A - Pass Details

Date: 02 September 2019
Orbit: 865 x 980 km, 66.8° (Epoch: 21 September)

Event Time Altitude Azimuth Distance (km) Brightness Sun altitude
Rises 23:15:32 0° 332° (NNW) 3,633 11.9 -37.9°
Reaches altitude 10° 23:18:19 10° 340° (NNW) 2,667 11.0 -38.0°
Enters shadow 23:22:29 33° 16° (NNE) 1,518 9.3 -38.1°
Maximum altitude 23:24:04 38° 48° (NE) 1,372 - -38.2°
Drops below altitude 10° 23:29:37 10° 116° (ESE) 2,579 - -38.3°
Sets 23:32:16 0° 124° (SE) 3,500 - -38.4°
